Showing default

YUNYAO-1 45, 63346

Orbit data source: Space-Track

YUNYAO-1 45, 63346 is a payload satellite owned by Yunyao yuhang (CN) in SSO that was launched on Fri, 21 Mar 2025 UTC via a GUSHENXING 1 launch vehicle from the Jiuquan Satellite Launch Center, China (JSC). Payload-class satellites include a variety of spacecraft equipped with specific instruments for various scientific and technological missions. These include communications satellites like Starlink; space stations such as the ISS; scientific satellites like the Hubble; Earth observation satellites from companies like Planet Labs, Umbra, and HawkEye 360; GPS; miniature CubeSats for education and research; and military/defense satellites.

Loading next visibility...
Identifier
63346, 2025-059C
Orbit
SSO
Country
Flag of CNCN / PRC
Related business
Manufacturer
Changguang WJ
Mission
Operational Commercial Meteo Radio Occ.
Bus & Motor
YY-1, Unknown motor
Mass
~50 kg wet, ~50 kg dry
Launch date (UTC)
2025-03-21 (7 months ago)
Launch vehicle
GUSHENXING 1
Launch site
Jiuquan Satellite Launch Center, China (JSC)
Object type
Payload
Rocket body
Debris
Shape & HBR
Box + 1 Pan, 0.6 m
Radar Cross Section
5.339 m², Medium (>0.1 m² and < 1m²)

Expand to show TLE details & history
Last TLE update: 12 hours ago

TLE from 12 hours ago
0 YUNYAO-1 45
1 63346U 25059C   25292.32670919  .00008893  00000-0  56768-3 0  9993
2 63346  97.6041 110.5003 0015573 262.1921  97.7540 15.08808423 31954
Epoch: 2025-10-19T07:50Z
TLE epoch observation values (Epoch: 2025-10-19T07:50:27.674Z)
Latitude
0.00005°
Longitude
-35.15999°
Altitude
544.38 km
Speed
7.589 km/s
True Right ascension
07h 22m 00s
True Declination
0° 00' 00"
Sunlit
Object was in daylight at epoch
Visualization orbit readout
Latitude
Unknown
Longitude
Unknown
Altitude
Unknown
Speed
Unknown
Apparent Right ascension
Unknown
Apparent Declination
Unknown
Sunlit
N/A
Visualization observer readout
Local Sidereal Time
14:54:47
Azimuth
Unknown
Elevation
Unknown
Doppler factor
Unknown
Orbital elements
Apogee altitude
547.598 km
Perigee altitude
526.061 km
Semi-major axis
6,914.966 km
Eccentricity
0.00156
Inclination
97.6041°
RAAN
110.5003°
Arg. of periapsis
262.1921°
True anomaly
97.93078°
Mean anomaly
97.754°
Eccentric anomaly
97.84239°
Mean motion
3.77449 °/min
Orbital period
95.38 mins
BSTAR
0.00056768
Loading maneuver chart data...
Computing Atmospheric mass density...
Loading historical data...
Loading historical data...
Loading historical data...
Loading historical data...
Loading historical data...
Loading historical data...
Loading historical data...
Other satellites on launch #59 in the year 2025 (2025-03-21 UTC)

Documentation

Showing up to 5 results
|